www.pogodaiklimat.ru

Погода и климат >> Архив погоды >> Индонезия >> Меулабох


ПОГОДА в Меулабохе

  • Прогноз погоды в Меулабохе
  • Монитор погоды в Меулабохе

АРХИВ ПОГОДЫ в Меулабохе

Время (UTC), дата Ветер
(напр.,м/с)
 
Видим.   Явления Облачность Т
(С)
Тd
(С)
f
(%)
Тe
(С)
Тes
(С)
Комфортность P
(гПа)
Po
(гПа)
Тmin
(С)
Tmax
(С)
R
(мм)
R24
(мм)
S
(см)
21 16.01 штиль 0 6000 м 8/4 570 м
[Sc As op Ci sp]
+24.6 +24.1 97 +34 +34 очень
душно
1008.8 1008.2
00 17.01 штиль 0 6000 м 8/5 540 м
[Cu Sc Ac As Ci sp]
+24.4 +24.1 98 +34 +34 очень
душно
1009.1 1008.5 +24.0 0.6
03 17.01 ЮВ 2 10 км 5/3 600 м
[Cu med, cong Ac trans Ci fib]
+28.6 +26.2 87 +43 +51 опасность
перегрева
1010.9 1010.3
06 17.01 ЮЗ 4 12 км 6/4 600 м
[Cu med, cong Ac trans Ci fib]
+30.2 +26.8 82 +47 +54 опасность
перегрева
1009.4 1008.8
09 17.01 Ю 2 12 км 6/4 570 м
[Sc Ac trans Ci fib]
+31.5 +25.2 69 +45 +49 опасность
перегрева
1006.7 1006.1
12 17.01 В 1 7000 м 9/5 500 м
[Sc Ac trans Ci sp]
+28.0 +24.5 81 +39 +39 очень
душно
1007.7 1007.1 +32.3
15 17.01 С 1 7000 м 6/4 500 м
[Sc Ac As Ci fib]
+26.8 +25.9 95 +40 +40 очень
душно
1010.3 1009.6
18 17.01 СВ 1 7000 м 6/4 500 м
[Sc Ac As Ci fib]
+26.2 +25.7 97 +39 +39 очень
душно
1010.2 1009.6
21 17.01 С 1 6000 м 9/4 500 м
[Sc Ac und Ci sp]
+25.2 +24.9 98 +36 +36 очень
душно
1008.1 1007.5
00 18.01 штиль 0 6000 м 9/4 500 м
[Sc Ac und Ci sp]
+24.2 +23.9 98 +33 +33 очень
душно
1008.9 1008.3 +24.1
03 18.01 В 2 8000 м 9/6 540 м
[Cu med, cong Ac As Ci sp]
+27.9 +25.9 89 +42 +45 опасность
перегрева
1010.5 1009.9
06 18.01 ЮЗ 3 8000 м 9/6 500 м
[Sc Ac As Ci sp]
+30.4 +26.6 80 +47 +51 опасность
перегрева
1008.8 1008.2
09 18.01 ЮЗ 3 12 км 8/3 500 м
[Sc Ac lent Ci sp]
+30.2 +28.9 93 +53 +55 опасность
перегрева
1006.5 1005.9
12 18.01 Ю 1 9000 м 9/3 540 м
[Sc Ac lent Ci fib]
+28.5 +26.2 87 +43 +43 опасность
перегрева
1008.1 1007.5 +31.3
15 18.01 СВ 1 8000 м 9/5 480 м
[Sc Ac und Ci]
+26.3 +24.9 92 +38 +38 очень
душно
1010.7 1010.1
18 18.01 С 1 6000 м 8/4 540 м
[Sc Ac trans Ci]
+25.1 +24.6 97 +35 +35 очень
душно
1009.8 1009.2
21 18.01 СВ 1 6000 м 6/4 540 м
[Sc Ac As Ci sp]
+24.8 +24.8 100 +35 +35 очень
душно
1007.9 1007.3
00 19.01 СВ 1 5000 м дымка 6/4 300 м
[Sc Ac As Ci sp]
+24.5 +23.8 96 +33 +33 очень
душно
1008.4 1007.8 +22.0
03 19.01 ЮВ 1 10 км 8/4 500 м
[Sc Ac As Ci sp]
+29.0 +26.1 84 +44 +49 опасность
перегрева
1010.4 1009.8
06 19.01 ЮЗ 4 10 км 6/4 500 м
[Sc Ac As Ci sp]
+30.2 +27.3 85 +48 +55 опасность
перегрева
1009.2 1008.6
09 19.01 ЮЗ 2 10 км 8/3 540 м
[Cu med, cong As op Ci sp]
+31.9 +26.3 72 +48 +51 опасность
перегрева
1007.0 1006.4
12 19.01 штиль 0 8000 м гроза без осадков 10/8 450 м
[Cb cap Ac und Ci]
+29.1 +25.0 79 +42 +42 опасность
перегрева
1008.8 1008.2 +32.1
15 19.01 штиль 0 6000 м гроза без осадков 9/6 500 м
[Cb calv As op Ci sp]
+26.4 +25.6 95 +39 +39 очень
душно
1011.1 1010.5
18 19.01 штиль 0 6000 м 8/4 500 м
[Sc diur, vesp As op Ci sp]
+24.8 +24.0 95 +34 +34 очень
душно
1010.7 1010.1
21 19.01 штиль 0 6000 м 8/4 570 м
[Sc Ac As Ci sp]
+24.4 +23.7 96 +33 +33 очень
душно
1008.7 1008.1
00 20.01 С 1 6000 м 9/5 500 м
[Cb cap Ac As Ci sp]
+24.8 +24.1 96 +34 +34 очень
душно
1009.9 1009.3 +24.4
03 20.01 ЮЗ 2 1000 м гроза, ливневой дождь 10/8
[Cb cap As op]
+24.7 +24.6 99 +35 +35 очень
душно
1013.2 1012.6 54
06 20.01 В 1 7000 м слаб. дождь {гроза} 10/8
[Cb cap As op]
+25.2 +24.7 97 +35 +36 очень
душно
1012.2 1011.6 6
09 20.01 Ю 4 7000 м {дождь} 9/6 480 м
[Sc diur, vesp As op Ci sp]
+27.4 +26.6 95 +42 +43 опасность
перегрева
1010.2 1009.5 0.0
12 20.01 В 2 4000 м слаб. дождь 10/8 420 м
[Cb calv As op]
+24.2 +23.6 96 +33 +33 очень
душно
1011.5 1010.9 +29.8 7
15 20.01 С 1 6000 м {дождь} 10/5 500 м
[Sc Ac As]
+23.7 +23.1 96 +31 +31 очень
душно
1012.8 1012.2 0.2
18 20.01 штиль 0 6000 м 10/5 500 м
[Sc Ac As]
+23.8 +23.5 98 +32 +32 очень
душно
1011.9 1011.3 0.2
21 20.01 штиль 0 6000 м 9/5 500 м
[Sc Ac As Ci sp]
+23.4 +22.8 96 +33 +33 очень
душно
1010.4 1009.8
00 21.01 штиль 0 5000 м в посл. час дождь 9/5 500 м
[Sc Ac As Ci sp]
+23.8 +23.5 98 +32 +32 очень
душно
1011.8 1011.2 +23.4 3
03 21.01 СВ 1 10 км 9/5 450 м
[Cu med, cong Ac As Ci sp]
+26.6 +23.9 85 +37 +40 очень
душно
1014.3 1013.7
06 21.01 З 3 3000 м гроза, ливневой дождь 9/6 420 м
[Cb cap Ac lent Ci fib]
+25.3 +24.6 96 +36 +40 очень
душно
1013.7 1013.1 2
09 21.01 В 2 7000 м в посл. час дождь 9/5 480 м
[Sc Ac und Ci sp]
+27.9 +24.5 82 +39 +42 очень
душно
1011.3 1010.7 1
12 21.01 В 2 3000 м дождь 10/6 450 м
[Cb cap Ac As]
+22.8 +22.2 96 +31 +31 очень
душно
1013.4 1012.8 +29.8 13
15 21.01 В 1 6000 м в посл. час дождь 10/5 500 м
[Sc Ac As]
+22.7 +22.1 96 +31 +31 очень
душно
1014.1 1013.5 6
18 21.01 С 1 6000 м {дождь} 10/6 480 м
[Sc Ac As]
+22.9 +22.2 96 +31 +31 очень
душно
1012.3 1011.7 6
21 21.01 штиль 0 5000 м дымка 9/5 480 м
[Cb calv Ac und Ci]
+22.2 +21.9 98 +29 +29 очень
душно
1010.9 1010.3
00 22.01 СВ 2 600 м 8/3 500 м
[Sc As op Ci sp]
+22.1 +21.5 96 +29 +29 очень
душно
1011.5 1010.9 +22.0 22
03 22.01 СЗ 1 8000 м 5/3 570 м
[Sc Ac trans Ci sp]
+30.5 +23.5 66 +41 +50 опасность
перегрева
1013.2 1012.6
06 22.01 З 1 10 км 5/3 600 м
[Sc Ac trans Ci sp]
+31.9 +23.8 62 +43 +56 опасность
перегрева
1011.2 1010.6
09 22.01 З 3 10 км 6/3 600 м
[Sc Ac As Ci sp]
+32.1 +24.4 64 +45 +48 опасность
перегрева
1009.4 1008.8
12 22.01 З 2 8000 м 8/4 570 м
[Sc Ac As Ci sp]
+29.0 +25.5 81 +43 +43 опасность
перегрева
1009.8 1009.2 +32.0
15 22.01 С 1 6000 м 8/4 540 м
[Sc Ac trans Ci sp]
+26.5 +25.1 92 +38 +38 очень
душно
1012.0 1011.4
18 22.01 штиль 0 6000 м 8/4 540 м
[Sc Ac trans Ci sp]
+25.6 +24.9 96 +36 +36 очень
душно
1011.9 1011.3
21 22.01 СВ 1 6000 м 8/4 570 м
[Sc Ac As Ci sp]
+24.6 +23.9 96 +34 +34 очень
душно
1010.2 1009.6
00 23.01 штиль 0 6000 м 8/4 570 м
[Sc As op Ci sp]
+24.0 +23.7 98 +33 +33 очень
душно
1010.5 1009.9 +22.2
03 23.01 ЮЗ 2 10 км 6/4 540 м
[Sc Ac As Ci sp]
+28.9 +26.9 89 +45 +51 опасность
перегрева
1012.1 1011.5
06 23.01 ЮЗ 3 10 км 5/3 540 м
[Cu med, cong Ac As Ci sp]
+30.3 +28.0 88 +50 +59 опасность
перегрева
1009.3 1008.7
09 23.01 Ю 2 10 км 5/3 600 м
[Sc Ac trans Ci fib]
+32.0 +26.0 71 +48 +52 опасность
перегрева
1007.2 1006.6
12 23.01 Ю 1 8000 м 8/4 570 м
[Cu med, cong Ac trans Ci sp]
+29.1 +24.2 75 +41 +41 опасность
перегрева
1009.6 1009.0 +32.8
15 23.01 СВ 1 7000 м 8/4 500 м
[Cu med, cong Ac As Ci fib]
+26.6 +25.3 93 +39 +39 очень
душно
1011.7 1011.1
18 23.01 СВ 2 7000 м 6/3 500 м
[Sc Ac As Ci fib]
+25.0 +24.5 97 +35 +35 очень
душно
1011.3 1010.7

 

Местоположение метеостанции Меулабох (Индонезия): широта 4.25 долгота 96.12 высота над уровнем моря 90 м.

В архиве по умолчанию представлена погода в Меулабохе за последнюю неделю. Архивные данные за месяц целиком и за предыдущие месяцы, начиная с января 2011 года, Вы можете получить, выбрав интересующий диапазон дат из раскрывающегося списка и нажав кнопку "Ввод!".


*Определитесь, кто Вы:
робот инопланетянин человек

Внимание! Время в таблицах - всемирное. Для получения местного времени необходимо прибавить поправку, которая равна 7 ч.

Смотрите также архив погоды в соседних городах и на ближайших метеорологических станциях:

Погода в Банда-Ачехе (Индонезия) (161 км)
Погода в Лхоксёмаве (Индонезия) (162 км)
Погода в Сабанге (Индонезия) (201 км)
Погода в Белаване (Индонезия) (291 км)
Погода в Медан Полония (Индонезия) (294 км)
Погода в Гунунгситоли (Индонезия) (349 км)
Погода в Сиболге (Индонезия) (429 км)
Погода в Лангкави (Малайзия) (462 км)
Погода в Пенанге (Малайзия) (474 км)
Погода на Пхукете (Таиланд) (476 км)

Пояснения к столбцам:

Ветер - указаны скорость ветра в м/с - средняя за 10 мин, порывы в срок и между сроками (в фигурных скобках) и направление, откуда дует ветер: С - северный, СВ - северо-восточный, В - восточный, ЮВ - юго-восточный, Ю - южный, ЮЗ - юго-западный, З - западный, СЗ - северо-западный.
Видимость - горизонтальная дальность видимости в метрах или километрах. При видимости от 1 до 10 км при отсутствии осадков обычно наблюдается дымка, при ухудшении видимости до 1 км и менее - туман. В сухую погоду видимость может ухудшаться дымом, пылью или мглою.
Явления - указаны атмосферные явления, наблюдавшиеся в срок или в последний час перед сроком; фигурными скобками обозначены явления, наблюдавшиеся между сроками (за 1-3 часа до срока); квадратными скобками обозначены град или гололедные отложения с указанием их диаметра в мм.
Облачность - указаны через наклонную черту общая и нижняя облачность в баллах и высота нижней границы облаков в метрах; квадратными скобками обозначены формы облаков: Ci - перистые, Cs - перисто-слоистые, Cc - перисто-кучевые, Ac - высококучевые, As - высокослоистые, Sc - слоисто-кучевые, Ns - слоисто-дождевые, Cu - кучевые, Cb - кучево-дождевые. Подробнее классификацию облаков см. в Атласе облаков (PDF).
T - Температура воздуха - температура, измеренная на высоте 2 м над землей.
Td - Температура точки росы - температура, при понижении до которой содержащийся в воздухе водяной пар достигнет насыщения.
f - Относительная влажность воздуха - влажноcть воздуха, измеренная на высоте 2 м над землей.
Te - Эффективная температура - температура, которую ощущает одетый по сезону человек в тени. Характеристика душности погоды. При расчете учитывается влияние влажности воздуха и скорости ветра на теплоощущения человека.
Tes - Эффективная температура на солнце - температура, которую ощущает человек, с поправкой на солнечный нагрев. Характеристика знойности погоды. Зависит от высоты солнца над горизонтом, облачности и скорости ветра. Ночью, в пасмурную погоду, а также при ветре 12 м/с и более поправка равна нулю.
P - Атмосферное давление - приведенное к уровню моря атмосферное давление.
Po - Атмосферное давление - измеренное на уровне метеостанции атмосферное давление.
Tmin - Минимальная температура - минимум температуры воздуха на высоте 2 м над землей.
Tmax - Максимальная температура - максимум температуры воздуха на высоте 2 м над землей.
R - Количество осадков - Количество выпавших осадков за период времени, мм. При наведении курсора мыши на число - период времени, за который выпало указанное количество осадков.
R24 - Количество осадков - Количество выпавших осадков за 24 часа, мм.
S - Снежный покров - Высота снежного покрова, см. При наведении курсора мыши на число - состояние снежного покрова и степень покрытия местности в баллах.